This demonstration page uses our WeatherBlox Daily Observations layout. Learn more.

Left ArrowRight Arrow

Hourly Observations for May 26, 2019

Temp ( °F °C ) Dew Point ( °F °C ) Humidity (%) Winds ( mph kmh ) Pressure ( in mb ) Visibility ( mi km ) Precip ( " mm )
12:15 am 00:15 Clear 72 22 72 22 100 100 SSW 7 11 30.01 1016 10 16.0934 N/A
12:35 am 00:35 Clear 72 22 72 22 100 100 SSW 7 11 30.01 1016 10 16.0934 N/A
12:55 am 00:55 Clear 72 22 72 22 100 100 SSW 7 11 30.01 1016 10 16.0934 N/A
1:15 am 01:15 Clear 72 22 72 22 100 100 SSW 7 11 30.01 1016 10 16.0934 N/A
1:35 am 01:35 Clear 70 21 70 21 100 100 SW 5 7 30.02 1016 10 16.0934 N/A
1:56 am 01:56 Clear 70 21 70 21 100 100 SW 6 9 30.02 1016 10 16.0934 N/A
2:15 am 02:15 Clear 72 22 72 22 100 100 SSW 7 11 30.01 1016 10 16.0934 N/A
2:36 am 02:36 Clear 72 22 72 22 100 100 SSW 6 9 30 1016 10 16.0934 N/A
2:55 am 02:55 Clear 70 21 70 21 100 100 SSW 5 7 30.01 1016 10 16.0934 N/A
3:15 am 03:15 Partly Cloudy 70 21 70 21 100 100 S 6 9 30 1016 10 16.0934 N/A
3:35 am 03:35 Partly Cloudy 70 21 70 21 100 100 S 8 13 29.99 1015 10 16.0934 N/A
3:55 am 03:55 Mostly Cloudy 72 22 72 22 100 100 SSW 6 9 29.99 1016 10 16.0934 N/A
4:16 am 04:16 Partly Cloudy 70 21 70 21 100 100 S 7 11 29.99 1015 10 16.0934 N/A
4:35 am 04:35 Clear 70 21 70 21 100 100 SSW 7 11 30 1016 10 16.0934 N/A
4:56 am 04:56 Mostly Cloudy 72 22 72 22 100 100 SSW 7 11 30 1016 10 16.0934 N/A
5:15 am 05:15 Cloudy 73 23 72 22 94 94 WSW 12 19 30.01 1016 10 16.0934 N/A
5:35 am 05:35 Cloudy 68 20 66 19 94 94 WNW 17 28 30.05 1018 10 16.0934 N/A
5:55 am 05:55 Mostly Cloudy 66 19 66 19 100 100 WNW 8 13 30.03 1017 10 16.0934 N/A
6:15 am 06:15 Partly Cloudy 66 19 66 19 100 100 N N/A 30.02 1017 10 16.0934 N/A
6:36 am 06:36 Sunny 66 19 66 19 100 100 SW 3 6 30.03 1017 10 16.0934 N/A
6:55 am 06:55 Sunny 64 18 64 18 100 100 N N/A 30.04 1017 10 16.0934 N/A
7:15 am 07:15 Sunny 64 18 64 18 100 100 N N/A 30.04 1017 10 16.0934 N/A
7:35 am 07:35 Partly Cloudy 66 19 66 19 100 100 SE 3 6 30.04 1017 10 16.0934 N/A
7:55 am 07:55 Mostly Cloudy 68 20 68 20 100 100 SE 3 6 30.05 1018 10 16.0934 N/A
8:16 am 08:16 Partly Cloudy 68 20 68 20 100 100 N N/A 30.05 1018 10 16.0934 N/A
8:35 am 08:35 Sunny 70 21 68 20 94 94 WNW 7 11 30.07 1018 10 16.0934 N/A
8:55 am 08:55 Partly Cloudy 70 21 68 20 94 94 N N/A 30.06 1018 10 16.0934 N/A
9:15 am 09:15 Mostly Cloudy 70 21 68 20 94 94 N N/A 30.06 1018 10 16.0934 N/A
9:35 am 09:35 Mostly Cloudy 70 21 68 20 94 94 N N/A 30.06 1018 10 16.0934 N/A
9:55 am 09:55 Cloudy 70 21 68 20 94 94 NW 3 6 30.06 1018 10 16.0934 N/A
10:15 am 10:15 Mostly Cloudy 72 22 70 21 94 94 N N/A 30.04 1017 10 16.0934 N/A
10:35 am 10:35 Sunny 73 23 68 20 83 83 N N/A 30.05 1018 10 16.0934 N/A
10:55 am 10:55 Partly Cloudy 73 23 66 19 78 78 N N/A 30.05 1018 10 16.0934 N/A
11:15 am 11:15 Partly Cloudy 75 24 68 20 78 78 NW 6 9 30.05 1017 10 16.0934 N/A
11:35 am 11:35 Sunny 73 23 66 19 78 78 N 3 6 30.05 1018 10 16.0934 N/A
11:55 am 11:55 Partly Cloudy 75 24 68 20 78 78 NNW 6 9 30.06 1018 10 16.0934 N/A
12:16 pm 12:16 Sunny 75 24 68 20 78 78 N 8 13 30.05 1017 10 16.0934 N/A
12:35 pm 12:35 Partly Cloudy 77 25 66 19 69 69 NW 5 7 30.04 1017 10 16.0934 N/A
12:55 pm 12:55 Partly Cloudy 75 24 66 19 74 74 NW 5 7 30.05 1017 10 16.0934 N/A
1:15 pm 13:15 Partly Cloudy 75 24 68 20 78 78 N 3 6 30.05 1017 10 16.0934 N/A
1:35 pm 13:35 Sunny 77 25 66 19 69 69 N 3 6 30.03 1017 10 16.0934 N/A
1:55 pm 13:55 Sunny 77 25 66 19 69 69 NNE 5 7 30.03 1017 10 16.0934 N/A
2:15 pm 14:15 Sunny 77 25 66 19 69 69 NNW 3 6 30.02 1017 10 16.0934 N/A
2:35 pm 14:35 Sunny 77 25 66 19 69 69 N N/A 30.01 1016 10 16.0934 N/A
2:55 pm 14:55 Sunny 77 25 68 20 74 74 N 3 6 30 1016 10 16.0934 N/A
3:15 pm 15:15 Sunny 77 25 68 20 74 74 N N/A 30 1016 10 16.0934 N/A
3:35 pm 15:35 Sunny 79 26 70 21 74 74 NE 3 6 30 1016 10 16.0934 N/A
3:55 pm 15:55 Sunny 79 26 68 20 70 70 NNW 5 7 30.01 1016 10 16.0934 N/A
4:15 pm 16:15 Partly Cloudy 79 26 70 21 74 74 N 8 13 30.01 1016 10 16.0934 N/A
4:35 pm 16:35 Partly Cloudy 79 26 68 20 70 70 N N/A 30.01 1016 10 16.0934 N/A
4:55 pm 16:55 Sunny 79 26 68 20 70 70 N 6 9 30 1016 10 16.0934 N/A
5:15 pm 17:15 Partly Cloudy 79 26 68 20 70 70 N 5 7 30 1016 10 16.0934 N/A
5:35 pm 17:35 Sunny 77 25 68 20 74 74 NNW 8 13 29.99 1016 10 16.0934 N/A
5:56 pm 17:56 Partly Cloudy 77 25 70 21 79 79 N 12 19 30 1016 10 16.0934 N/A
6:15 pm 18:15 Mostly Cloudy 75 24 70 21 83 83 NNE 10 17 30.01 1016 10 16.0934 N/A
6:35 pm 18:35 Mostly Cloudy 75 24 70 21 83 83 N 13 20 30.01 1016 10 16.0934 N/A
6:55 pm 18:55 Mostly Cloudy 75 24 70 21 83 83 N 12 19 30 1016 10 16.0934 N/A
7:15 pm 19:15 Mostly Cloudy 75 24 68 20 78 78 N 13 20 30.01 1016 10 16.0934 N/A
7:36 pm 19:36 Mostly Cloudy 73 23 64 18 74 74 NNW 9 15 30.01 1016 10 16.0934 N/A
7:55 pm 19:55 Mostly Cloudy 75 24 66 19 74 74 N 8 13 30.01 1016 10 16.0934 N/A
8:15 pm 20:15 Partly Cloudy 73 23 68 20 83 83 N 7 11 30.01 1016 10 16.0934 N/A
8:35 pm 20:35 Partly Cloudy 73 23 68 20 83 83 N 7 11 30.01 1016 10 16.0934 N/A
8:55 pm 20:55 Partly Cloudy 72 22 68 20 88 88 N 12 19 30.01 1016 10 16.0934 N/A
9:15 pm 21:15 Partly Cloudy 70 21 68 20 94 94 N 8 13 30.03 1017 10 16.0934 N/A
9:35 pm 21:35 Clear 68 20 68 20 100 100 N 7 11 30.03 1017 10 16.0934 N/A
9:55 pm 21:55 Clear 68 20 66 19 94 94 N 6 9 30.03 1017 10 16.0934 N/A
10:15 pm 22:15 Partly Cloudy 66 19 66 19 100 100 N 5 7 30.04 1017 10 16.0934 N/A
10:35 pm 22:35 Partly Cloudy 66 19 66 19 100 100 NNE 3 6 30.05 1018 10 16.0934 N/A
10:55 pm 22:55 Mostly Cloudy 66 19 66 19 100 100 N N/A 30.05 1018 10 16.0934 N/A
11:15 pm 23:15 Mostly Cloudy 66 19 66 19 100 100 N N/A 30.06 1018 10 16.0934 N/A
11:35 pm 23:35 Partly Cloudy 64 18 64 18 100 100 N N/A 30.05 1018 10 16.0934 N/A
11:55 pm 23:55 Clear 64 18 64 18 100 100 N N/A 30.06 1018 10 16.0934 N/A

Powered by AerisWeather